Lexington Weather

Lexington, Massachusetts, USA

26°F
2/26/2021 8:07am 
  • Lexington Conditions: Clear
  • Temperature: 25.9°F / -3.4°CWarmer 1.5°F than last hour.
  • Dew Point: 16.2°FIncreased 1.5°Fsince last hour.
  • Relative Humidity: 66
  • Wind: Wind from NNW NNW 1 mph, 10-min avg: 2 mph, gust: 4 mph
  • Barometer: 30.37 inRising 0.04  inHg/hr Rising Slowly
  • Visibility: 10 miles
  • Snow Today: 0.0 in
  •   

Regional Weather Roundup
for Boston / Norton, MA

        
000
ASUS41 KBOX 222105
RWRBOX

REGIONAL WEATHER ROUNDUP
NATIONAL WEATHER SERVICE BOSTON/NORTON MA
400 PM EST MON FEB 22 2021

NOTE:  "FAIR" INDICATES FEW OR NO CLOUDS BELOW 12,000 FEET WITH NO 
SIGNIFICANT WEATHER AND/OR OBSTRUCTIONS TO VISIBILITY.

MAZALL-222200-
EASTERN MASSACHUSETTS
  
CITY           SKY/WX    TMP DP  RH WIND       PRES   REMARKS
BOSTON         LGT RAIN  36  33  89 S18       29.86F WCI  26          
BEVERLY        LGT RAIN  39  33  79 S13       29.84F WCI  31          
LAWRENCE       LGT RAIN  37  33  85 VRB5      29.85F                  
BEDFORD        LGT RAIN  37  34  89 S10       29.82F WCI  30          
BLUE HILL        N/A     35  35 100 S18G37    29.81F WCI  24          
NORWOOD        LGT RAIN  39  33  79 S10G23    29.85F                  
MARSHFIELD     CLOUDY    39  37  93 S12G22    29.87F WCI  32          
PLYMOUTH       LGT RAIN  38  35  89 S8        29.87F                  
TAUNTON        LGT RAIN  39  36  89 S8        29.86F                  
NEW BEDFORD    LGT RAIN  41  37  86 S14       29.87F                  
$$

MAZALL-222200-
CAPE COD AND THE ISLANDS
  
CITY           SKY/WX    TMP DP  RH WIND       PRES   REMARKS
FALMOUTH       LGT RAIN  37  36  93 S15       29.91F FOG     WCI  28  
HYANNIS        LGT RAIN  40  35  83 S13G22    29.89F                  
CHATHAM        LGT RAIN  40  34  79 S12G20    29.94F                  
PROVINCETOWN   LGT RAIN  38  36  92 S14G24    29.91F WCI  30          
NANTUCKET      LGT RAIN  40  37  89 S16       29.94F WCI  31          
MARTHAS VNYRD  LGT RAIN  40  37  89 S16G24    29.90F FOG     WCI  31  
$$
 
MAZALL-222200-
CENTRAL AND WESTERN MASSACHUSETTS
  
CITY           SKY/WX    TMP DP  RH WIND       PRES   REMARKS
WORCESTER      LGT SNOW  34  31  88 S13       29.77F VSB 3/4 WCI  25  
FITCHBURG      LGT SNOW  34  34 100 SE6       29.81F FOG     WCI  29  
ORANGE         LGT SNOW  33  32  96 CALM      29.77F VSB 3/4          
SPRINGFIELD    LGT SNOW  33  33  99 CALM      29.76F VSB 1            
WESTFIELD      LGT SNOW  33  32  96 S5        29.77F VSB 3/4 WCI  29  
NORTH ADAMS    SNOW      33  31  92 E5        29.73F VSB 1/2 WCI  29  
PITTSFIELD     SNOW      31  30  96 N3        29.70F VSB 1/4          
$$
 
RIZALL-222200-
RHODE ISLAND
  
CITY           SKY/WX    TMP DP  RH WIND       PRES   REMARKS
PROVIDENCE     LGT RAIN  39  37  92 S14       29.85F FOG     WCI  31  
NEWPORT        LGT RAIN  39  38  96 S20G28    29.85F FOG     WCI  29  
BLOCK ISLAND   LGT RAIN  40  38  93 S18G24    29.84F FOG     WCI  31  
SMITHFIELD     LGT RAIN  36  36 100 VRB7      29.81F WCI  30          
WESTERLY       LGT RAIN  39  38  96 S13G22    29.83F FOG     WCI  31  
$$
 
CTZALL-222200-
CONNECTICUT
  
CITY           SKY/WX    TMP DP  RH WIND       PRES   REMARKS
BRADLEY INTL   LGT SNOW  32  31  96 S3        29.77F VSB 3/4          
HARTFORD       LGT RAIN  35  32  88 CALM      29.77F FOG              
BRIDGEPORT     HVY RAIN  36  34  92 NW5       29.76F FOG              
DANBURY        RAIN      36  32  85 SE7       29.74F FOG     WCI  30  
GROTON         LGT RAIN  41  39  93 S18       29.80F FOG              
NEW HAVEN      RAIN      42  40  92 CALM      29.73F FOG              
CHESTER        LGT RAIN  41  41 100 SE12G21   29.76F                  
MERIDEN        RAIN      33  32  96 N3        29.76F FOG              
WILLIMANTIC    LGT RAIN  37  35  92 VRB7      29.79F FOG     WCI  32  
OXFORD         LGT RAIN  33  33 100 SE6       29.74F FOG     WCI  28  
$$

MEZ002-015-021-024-NHZ003-005-008-011-012-014-VTZ005-008-222200-
NORTHERN NEW ENGLAND
  
CITY           SKY/WX    TMP DP  RH WIND       PRES   REMARKS
PORTLAND ME    CLOUDY    35  33  92 S13       29.87F FOG     WCI  26  
BANGOR ME      LGT SNOW  32  28  85 S14       29.91F FOG     WCI  22  
CONCORD NH     LGT SNOW  32  29  88 SE3       29.82F FOG              
MANCHESTER NH  LGT SNOW  34  31  88 SE6       29.81F FOG     WCI  29  
NASHUA NH      LGT SNOW  34  34 100 SE3       29.82F FOG              
PORTSMOUTH NH  LGT RAIN  35  32  89 SE13      29.83F FOG     WCI  26  
JAFFREY NH     LGT SNOW  32  29  88 S3        29.76F VSB 3/4          
KEENE NH       LGT SNOW  33  31  92 S5        29.77F VSB 3/4 WCI  29  
BURLINGTON VT  CLOUDY    31  25  78 S17G25    29.70F WCI  19          
MT. WASHINGTON SNOW       9   9 100 SW45G59     N/A  VSB 0   WCI -18  
$$

NYZ052-076-222200-
EASTERN NEW YORK
  
CITY           SKY/WX    TMP DP  RH WIND       PRES   REMARKS
ALBANY         LGT SNOW  30  29  96 S12G21    29.73F VSB 1   WCI  20  
NEW YORK CITY  LGT RAIN  34  31  88 NE3       29.76F FOG              
$$
 
ANZALL-222200-
MARINE OBSERVATIONS
  
STATION/POSITION TIME  TEMP    WIND        PRES    VSBY  WAVE
                       AIR SEA DIR/SP/G                  HT/PER
                 (UTC) (F)     (DEG/KT/KT) (MB)    (MI)  (FT/S)
BOSTON BUOY      2040   39 39  170/ 17/ 23 1012.5F
BUZZARDS BAY     2000          170/ 20/ 22 1013.9F
NANTUCKET SOUND  2040      36  170/ 17/ 21   N/A
MASS BAY-STELLWA 2004   39     170/ 19/ 25 1012.0F  1 7/8  4/ 5
ISLE OF SHOALS   2000   35     170/ 29/ 32 1012.1F
S OF BLOCK IS    2026      38                N/A           6/ 6
$$

......................KEY.........................
  SKY/WX - SKY CONDITION/PRESENT WEATHER
  TMP    - TEMPERATURE IN FAHRENHEIT
  DWPT   - DEWPOINT IN FAHRENHEIT
  RH     - RELATIVE HUMIDITY IN PERCENT
  WIND   - DIRECTION AND SPEED IN MPH
  PRES   - MEAN SEA LEVEL PRESSURE IN INCHES OF HG
  WCI    - WIND CHILL INDEX
  VSB    - VISIBILITY IN MILES
  HX     - HEAT INDEX
  TC     - TEMPERATURE IN CELSIUS
  VRB    - VARIABLE WIND DIRECTION
  N/A    - NOT AVAILABLE
  
      

Other recent Regional Weather Roundups

Fri Feb 26, 7:04am

Fri Feb 26, 6:04am

Fri Feb 26, 5:04am

Fri Feb 26, 4:04am

Fri Feb 26, 3:04am

Fri Feb 26, 2:04am

Fri Feb 26, 1:04am

Fri Feb 26, 12:04am

Thu Feb 25, 11:04pm

Thu Feb 25, 10:04pm

Thu Feb 25, 9:04pm

Thu Feb 25, 8:05pm

Thu Feb 25, 7:05pm

Thu Feb 25, 6:04pm

Thu Feb 25, 5:04pm

Thu Feb 25, 4:05pm

Thu Feb 25, 3:05pm

Thu Feb 25, 2:04pm

Thu Feb 25, 1:04pm

Thu Feb 25, 12:05pm

Thu Feb 25, 11:04am

Thu Feb 25, 10:04am

Thu Feb 25, 9:04am

Thu Feb 25, 8:04am

Thu Feb 25, 7:04am

Thu Feb 25, 6:04am

Thu Feb 25, 5:04am

Thu Feb 25, 4:04am

Thu Feb 25, 3:04am

Thu Feb 25, 2:04am

Thu Feb 25, 1:04am

Thu Feb 25, 12:04am

Wed Feb 24, 11:04pm

Wed Feb 24, 10:05pm

Wed Feb 24, 9:04pm

Wed Feb 24, 8:04pm

Wed Feb 24, 7:04pm

Wed Feb 24, 6:04pm

Wed Feb 24, 5:04pm

Wed Feb 24, 4:04pm

Wed Feb 24, 3:04pm

Wed Feb 24, 2:05pm

Wed Feb 24, 1:05pm

Wed Feb 24, 12:05pm

Wed Feb 24, 11:04am

Wed Feb 24, 10:04am

Wed Feb 24, 9:04am

Wed Feb 24, 8:04am

Wed Feb 24, 7:04am

Wed Feb 24, 6:04am

Wed Feb 24, 5:04am

Wed Feb 24, 4:04am

Wed Feb 24, 3:04am

Wed Feb 24, 2:04am

Wed Feb 24, 1:04am

Wed Feb 24, 12:04am

Tue Feb 23, 11:04pm

Tue Feb 23, 10:04pm

Tue Feb 23, 9:04pm

Tue Feb 23, 8:05pm

Tue Feb 23, 7:04pm

Tue Feb 23, 6:04pm

Tue Feb 23, 5:04pm

Tue Feb 23, 4:05pm

Tue Feb 23, 3:04pm

Tue Feb 23, 2:04pm

Tue Feb 23, 1:04pm

Tue Feb 23, 12:04pm

Tue Feb 23, 11:04am

Tue Feb 23, 10:04am

Tue Feb 23, 9:04am

Tue Feb 23, 7:04am

Tue Feb 23, 6:04am

Tue Feb 23, 5:04am

Tue Feb 23, 4:04am

Tue Feb 23, 3:04am

Tue Feb 23, 2:04am

Tue Feb 23, 1:04am

Tue Feb 23, 12:04am

Mon Feb 22, 11:04pm

Mon Feb 22, 10:04pm

Mon Feb 22, 9:04pm

Mon Feb 22, 8:04pm

Mon Feb 22, 7:04pm

Mon Feb 22, 6:04pm

Mon Feb 22, 5:04pm

Mon Feb 22, 3:04pm

Mon Feb 22, 2:05pm

Mon Feb 22, 1:04pm

Mon Feb 22, 12:05pm

Mon Feb 22, 11:04am

Mon Feb 22, 10:04am

Mon Feb 22, 9:05am

Mon Feb 22, 8:04am

Mon Feb 22, 7:04am

Mon Feb 22, 6:04am

Mon Feb 22, 5:04am

Mon Feb 22, 4:04am

Mon Feb 22, 3:04am

Mon Feb 22, 2:04am

Mon Feb 22, 1:04am

Mon Feb 22, 12:04am

Sun Feb 21, 11:04pm

Sun Feb 21, 10:05pm

Sun Feb 21, 9:04pm

Sun Feb 21, 8:04pm

Sun Feb 21, 7:04pm

Sun Feb 21, 6:04pm

Sun Feb 21, 5:04pm

Sun Feb 21, 4:05pm

Sun Feb 21, 3:04pm

Sun Feb 21, 2:04pm

Sun Feb 21, 1:05pm

Sun Feb 21, 12:05pm

Sun Feb 21, 11:04am

Sun Feb 21, 10:05am

Sun Feb 21, 9:04am

Sun Feb 21, 8:04am

Sun Feb 21, 7:04am

Sun Feb 21, 6:04am

Sun Feb 21, 5:04am

Sun Feb 21, 4:04am

Sun Feb 21, 3:04am

Sun Feb 21, 2:04am

Sun Feb 21, 1:04am

Sun Feb 21, 12:04am

Sat Feb 20, 11:04pm

Sat Feb 20, 10:04pm

Sat Feb 20, 9:04pm

Sat Feb 20, 8:04pm

Sat Feb 20, 7:04pm

Sat Feb 20, 6:04pm

Sat Feb 20, 5:04pm

Sat Feb 20, 4:05pm

Sat Feb 20, 3:04pm

Sat Feb 20, 2:04pm

Sat Feb 20, 1:05pm

Sat Feb 20, 12:05pm

Sat Feb 20, 11:04am

Sat Feb 20, 10:05am

Sat Feb 20, 9:04am

Sat Feb 20, 8:04am

Sat Feb 20, 7:04am

Sat Feb 20, 6:04am

Sat Feb 20, 5:04am

Sat Feb 20, 4:04am

Sat Feb 20, 3:04am

Sat Feb 20, 2:04am

Sat Feb 20, 1:04am

Sat Feb 20, 12:04am

Fri Feb 19, 11:04pm

Fri Feb 19, 10:05pm

Fri Feb 19, 9:04pm

Fri Feb 19, 8:04pm

Fri Feb 19, 7:04pm

Fri Feb 19, 6:04pm

Fri Feb 19, 5:04pm

Fri Feb 19, 4:05pm

Fri Feb 19, 3:04pm

Fri Feb 19, 2:04pm

Fri Feb 19, 1:05pm

Fri Feb 19, 12:05pm

Fri Feb 19, 11:04am

Fri Feb 19, 10:04am

Fri Feb 19, 9:04am

Fri Feb 19, 8:04am

Meta data:

ID: ebca16f6-39bc-489b-8868-bd982a24630a
Link: https://api.weather.gov/products/ebca16f6-39bc-489b-8868-bd982a24630a